Location: ????????
(55.6189°N, 38.3031°E)
Time: 03:22:01
(UTC+00:00)

BREEZE-M DEB (TANK) - Pass Details

Date: 15 November 2019
Orbit: 283 x 20938 km, 49.3° (Epoch: 07 December)

Event Time Altitude Azimuth Distance (km) Brightness Sun altitude
Exits shadow 02:48:30 22° 194° (SSW) 895 3.3 -18.3°
Maximum altitude 02:48:49 22° 181° (S) 843 3.3 -18.2°
Drops below altitude 10° 02:50:35 10° 123° (ESE) 1,167 5.0 -18.0°
Sets 02:52:17 0° 104° (ESE) 1,958 6.8 -17.7°
